Weather History for KIJD - January, 2013

Change the Weather History Date:

Saturday, January 5, 2013

  Actual Average Record
Temperature  
Mean Temperature 30 °F -  
Max Temperature 41 °F 35 °F 59 °F (2007)
Min Temperature 19 °F 16 °F -5 °F (1981)
Degree Days  
Heating Degree Days 35    
Moisture  
Dew Point 19 °F    
Average Humidity 61    
Maximum Humidity 89    
Minimum Humidity 43    
Precipitation  
Precipitation 0.00 in - - ()
Sea Level Pressure  
Sea Level Pressure 30.14 in    
Wind  
Wind Speed 5 mph (West)    
Max Wind Speed 18 mph    
Max Gust Speed 29 mph    
Visibility 10 miles    
Events      
Averages and records for this station are not official NWS values.
T = Trace of Precipitation, MM = Missing Value Source: NWS Daily Summary

Daily Weather History Graph

Daily Weather History Graph

Search for Another Location

Airport or City:

Trip Planner

Search our weather history database for the weather conditions in past years. The results will help you decide how hot, cold, wet, or windy it might be!

Date:

Astronomy

Jan. 05, 2013 Rise Set
Actual Time 7:16 AM EST 4:32 PM EST
Civil Twilight 6:44 AM EST 5:04 PM EST
Nautical Twilight 6:10 AM EST 5:38 PM EST
Astronomical Twilight 5:36 AM EST 6:12 PM EST
Moon 12:16 AM EST (1/5) 11:23 AM EST (1/5)
Length of Visible Light 10h 19m
Length of Day
9h 16m
Last Quarter, 44% of the Moon is Illuminated
Jan 5
Last Quarter
Jan 11
New
Jan 18
First Quarter
Jan 26
Full
Feb 3
Last Quarter

Hourly Weather History & Observations

Time (EST) Temp. Windchill Dew Point Humidity Pressure Visibility Wind Dir Wind Speed Gust Speed Precip Events Conditions
12:52 AM 28.9 °F 23.9 °F 17.1 °F 61% 29.92 in 10.0 mi SW 4.6 mph - N/A   Clear
1:52 AM 30.0 °F 24.1 °F 17.1 °F 59% 29.95 in 10.0 mi WSW 5.8 mph - N/A   Clear
2:52 AM 32.0 °F 27.5 °F 18.0 °F 56% 29.97 in 10.0 mi WSW 4.6 mph - N/A   Overcast
3:52 AM 33.1 °F 26.9 °F 18.0 °F 54% 29.98 in 10.0 mi WSW 6.9 mph - N/A   Overcast
4:52 AM 32.0 °F 25.6 °F 19.0 °F 59% 30.00 in 10.0 mi West 6.9 mph - N/A   Overcast
5:52 AM 32.0 °F 28.7 °F 19.0 °F 59% 30.03 in 10.0 mi SW 3.5 mph - N/A   Overcast
6:52 AM 33.1 °F 28.7 °F 19.9 °F 59% 30.06 in 10.0 mi WSW 4.6 mph - N/A   Overcast
7:52 AM 34.0 °F 28.8 °F 21.0 °F 59% 30.11 in 10.0 mi SSW 5.8 mph - N/A   Overcast
8:52 AM 35.1 °F 31.0 °F 21.9 °F 59% 30.15 in 10.0 mi SW 4.6 mph - N/A   Overcast
9:52 AM 37.0 °F 33.3 °F 21.9 °F 54% 30.17 in 10.0 mi Variable 4.6 mph - N/A   Mostly Cloudy
10:52 AM 39.9 °F 32.5 °F 21.0 °F 47% 30.19 in 10.0 mi NW 12.7 mph 26.5 mph N/A   Partly Cloudy
11:52 AM 39.9 °F 31.8 °F 21.0 °F 47% 30.19 in 10.0 mi WNW 15.0 mph 28.8 mph N/A   Partly Cloudy
12:52 PM 41.0 °F 32.2 °F 19.9 °F 43% 30.17 in 10.0 mi NW 18.4 mph 28.8 mph N/A   Clear
1:52 PM 41.0 °F 35.2 °F 19.9 °F 43% 30.17 in 10.0 mi NW 9.2 mph 19.6 mph N/A   Clear
2:52 PM 39.9 °F 33.9 °F 19.0 °F 43% 30.19 in 10.0 mi NNW 9.2 mph - N/A   Clear
3:52 PM 39.0 °F 35.7 °F 19.0 °F 45% 30.22 in 10.0 mi Variable 4.6 mph - N/A   Clear
4:52 PM 36.0 °F - 18.0 °F 48% 30.22 in 10.0 mi Calm Calm - N/A   Clear
5:52 PM 28.9 °F - 19.9 °F 69% 30.25 in 10.0 mi Calm Calm - N/A   Clear
6:52 PM 26.1 °F - 19.9 °F 78% 30.28 in 10.0 mi Calm Calm - N/A   Clear
7:52 PM 25.0 °F - 19.0 °F 78% 30.27 in 10.0 mi Calm Calm - N/A   Clear
8:52 PM 24.1 °F - 19.0 °F 81% 30.26 in 10.0 mi Calm Calm - N/A   Clear
9:52 PM 19.0 °F - 16.0 °F 88% 30.26 in 10.0 mi Calm Calm - N/A   Clear
10:52 PM 19.9 °F - 17.1 °F 89% 30.24 in 10.0 mi Calm Calm - N/A   Clear
11:52 PM 21.9 °F - 18.0 °F 85% 30.21 in 10.0 mi Calm Calm - N/A   Clear